• In Uzbekistan
  • List of Countries
  • For 7 days
  • Water Temperature
  • Satellite Maps
  • Weather Map
  • Weather Widgets
  • user-avatar
    Login

    Hourly Weather Naru

    Today, 14 December, Thursday

    Time Temperature Precipitation Wind Pressure Humidity
    00:00 +23°C° 0 mm 1 mps 743 mmHg 94%
    01:00 +23°C° 0 mm 1 mps 743 mmHg 96%
    02:00 +23°C° 0 mm 1 mps 743 mmHg 96%
    03:00 +22°C° 0 mm 1 mps 743 mmHg 96%
    04:00 +22°C° 0 mm 1 mps 743 mmHg 97%
    05:00 +23°C° 0 mm 1 mps 743 mmHg 95%
    06:00 +23°C° 0 mm 1 mps 743 mmHg 93%
    07:00 +23°C° 0 mm 1 mps 744 mmHg 89%
    08:00 +25°C° 0 mm 1 mps 744 mmHg 81%
    09:00 +27°C° 0 mm 1 mps 744 mmHg 73%
    10:00 +29°C° 0 mm 1 mps 745 mmHg 64%
    11:00 +30°C° 0.2 mm 1 mps 744 mmHg 63%
    12:00 +31°C° 0.2 mm 1 mps 744 mmHg 61%
    13:00 +32°C° 0.2 mm 2 mps 743 mmHg 60%
    14:00 +30°C° 0.1 mm 2 mps 743 mmHg 64%
    15:00 +29°C° 0.1 mm 2 mps 743 mmHg 69%
    16:00 +28°C° 0.1 mm 2 mps 743 mmHg 74%
    17:00 +27°C° 0 mm 2 mps 743 mmHg 77%
    18:00 +26°C° 0 mm 2 mps 743 mmHg 81%
    19:00 +24°C° 0 mm 2 mps 743 mmHg 85%
    20:00 +24°C° 0 mm 2 mps 744 mmHg 86%
    21:00 +23°C° 0 mm 2 mps 744 mmHg 88%
    22:00 +23°C° 0 mm 2 mps 745 mmHg 90%
    23:00 +23°C° 0 mm 2 mps 745 mmHg 91%

    Tomorrow, 15 December, Friday

    Time Temperature Precipitation Wind Pressure Humidity
    00:00 +23°C° 0 mm 2 mps 744 mmHg 92%
    01:00 +22°C° 0 mm 1 mps 744 mmHg 93%
    02:00 +22°C° 0 mm 1 mps 744 mmHg 93%
    03:00 +22°C° 0 mm 1 mps 744 mmHg 93%
    04:00 +22°C° 0 mm 1 mps 744 mmHg 94%
    05:00 +22°C° 0 mm 1 mps 744 mmHg 93%
    06:00 +22°C° 0 mm 1 mps 744 mmHg 92%
    07:00 +22°C° 0 mm 1 mps 745 mmHg 91%
    08:00 +24°C° 0 mm 2 mps 745 mmHg 82%
    09:00 +26°C° 0 mm 2 mps 745 mmHg 72%
    10:00 +29°C° 0 mm 3 mps 746 mmHg 63%
    11:00 +29°C° 0 mm 3 mps 745 mmHg 60%
    12:00 +30°C° 0 mm 3 mps 745 mmHg 58%
    13:00 +31°C° 0 mm 3 mps 744 mmHg 56%
    14:00 +30°C° 0 mm 3 mps 744 mmHg 59%
    15:00 +29°C° 0 mm 3 mps 744 mmHg 61%
    16:00 +28°C° 0 mm 3 mps 744 mmHg 64%
    17:00 +27°C° 0 mm 3 mps 744 mmHg 70%
    18:00 +26°C° 0 mm 2 mps 745 mmHg 75%
    19:00 +24°C° 0 mm 2 mps 745 mmHg 81%
    20:00 +24°C° 0 mm 2 mps 746 mmHg 82%
    21:00 +23°C° 0 mm 2 mps 746 mmHg 84%
    22:00 +23°C° 0 mm 2 mps 746 mmHg 86%
    23:00 +23°C° 0 mm 2 mps 746 mmHg 87%

    Day after tomorrow, 16 December, Saturday

    Time Temperature Precipitation Wind Pressure Humidity
    00:00 +23°C° 0 mm 2 mps 746 mmHg 87%
    01:00 +21°C° 0 mm 2 mps 746 mmHg 88%
    02:00 +21°C° 0 mm 2 mps 746 mmHg 89%
    03:00 +22°C° 0 mm 1 mps 745 mmHg 90%
    04:00 +22°C° 0 mm 1 mps 745 mmHg 90%
    05:00 +22°C° 0 mm 1 mps 746 mmHg 90%
    06:00 +22°C° 0 mm 1 mps 746 mmHg 89%
    07:00 +22°C° 0 mm 1 mps 746 mmHg 89%
    08:00 +24°C° 0.1 mm 2 mps 747 mmHg 81%
    09:00 +26°C° 0.1 mm 3 mps 748 mmHg 73%
    10:00 +27°C° 0.1 mm 3 mps 748 mmHg 65%
    11:00 +27°C° 0.2 mm 3 mps 748 mmHg 68%
    12:00 +26°C° 0.2 mm 3 mps 747 mmHg 71%
    13:00 +26°C° 0.2 mm 3 mps 747 mmHg 74%
    14:00 +25°C° 0.3 mm 3 mps 746 mmHg 78%
    15:00 +24°C° 0.3 mm 3 mps 746 mmHg 82%
    16:00 +22°C° 0.3 mm 3 mps 746 mmHg 87%
    17:00 +22°C° 0.1 mm 3 mps 747 mmHg 85%
    18:00 +22°C° 0.1 mm 4 mps 747 mmHg 84%
    19:00 +21°C° 0.1 mm 4 mps 748 mmHg 83%
    20:00 +21°C° 0 mm 4 mps 748 mmHg 82%
    21:00 +21°C° 0 mm 4 mps 749 mmHg 81%
    22:00 +21°C° 0 mm 4 mps 749 mmHg 80%
    23:00 +21°C° 0 mm 4 mps 749 mmHg 79%

    17 December, Sunday

    Time Temperature Precipitation Wind Pressure Humidity
    00:00 +21°C° 0 mm 4 mps 749 mmHg 78%
    01:00 +20°C° 0 mm 4 mps 748 mmHg 78%
    02:00 +20°C° 0 mm 4 mps 748 mmHg 77%
    03:00 +20°C° 0 mm 4 mps 748 mmHg 77%
    04:00 +20°C° 0 mm 4 mps 748 mmHg 76%
    05:00 +20°C° 0 mm 4 mps 748 mmHg 76%
    06:00 +20°C° 0 mm 4 mps 749 mmHg 76%
    07:00 +20°C° 0 mm 4 mps 749 mmHg 76%
    08:00 +21°C° 0 mm 4 mps 750 mmHg 71%
    09:00 +22°C° 0 mm 5 mps 750 mmHg 66%
    10:00 +23°C° 0 mm 5 mps 751 mmHg 61%
    11:00 +23°C° 0 mm 5 mps 750 mmHg 60%
    12:00 +23°C° 0 mm 5 mps 750 mmHg 59%
    13:00 +23°C° 0 mm 5 mps 749 mmHg 59%
    14:00 +23°C° 0 mm 5 mps 749 mmHg 60%
    15:00 +22°C° 0 mm 5 mps 748 mmHg 62%
    16:00 +21°C° 0 mm 4 mps 748 mmHg 64%
    17:00 +20°C° 0 mm 4 mps 749 mmHg 68%
    18:00 +19°C° 0 mm 4 mps 749 mmHg 71%
    19:00 +18°C° 0 mm 3 mps 749 mmHg 75%
    20:00 +18°C° 0 mm 3 mps 750 mmHg 76%
    21:00 +18°C° 0 mm 3 mps 750 mmHg 77%
    22:00 +17°C° 0 mm 3 mps 750 mmHg 78%
    23:00 +17°C° 0 mm 3 mps 750 mmHg 78%

    18 December, Monday

    Time Temperature Precipitation Wind Pressure Humidity
    00:00 +17°C° 0 mm 3 mps 749 mmHg 78%
    01:00 +17°C° 0 mm 3 mps 749 mmHg 79%
    02:00 +17°C° 0 mm 3 mps 749 mmHg 79%
    03:00 +17°C° 0 mm 2 mps 749 mmHg 80%
    04:00 +16°C° 0 mm 2 mps 749 mmHg 80%
    05:00 +17°C° 0 mm 2 mps 749 mmHg 80%
    06:00 +17°C° 0 mm 2 mps 749 mmHg 80%
    07:00 +17°C° 0 mm 3 mps 750 mmHg 79%
    08:00 +19°C° 0 mm 3 mps 750 mmHg 73%
    09:00 +21°C° 0 mm 4 mps 751 mmHg 66%
    10:00 +22°C° 0 mm 4 mps 751 mmHg 59%
    11:00 +23°C° 0 mm 5 mps 750 mmHg 57%
    12:00 +23°C° 0 mm 5 mps 750 mmHg 55%
    13:00 +25°C° 0 mm 5 mps 749 mmHg 53%
    14:00 +23°C° 0 mm 5 mps 749 mmHg 56%
    15:00 +22°C° 0 mm 4 mps 749 mmHg 58%
    16:00 +22°C° 0 mm 4 mps 748 mmHg 61%
    17:00 +20°C° 0 mm 4 mps 749 mmHg 66%
    18:00 +19°C° 0 mm 3 mps 750 mmHg 72%
    19:00 +18°C° 0 mm 3 mps 750 mmHg 77%
    20:00 +18°C° 0 mm 3 mps 750 mmHg 78%
    21:00 +18°C° 0 mm 3 mps 751 mmHg 78%
    22:00 +17°C° 0 mm 3 mps 751 mmHg 78%
    23:00 +17°C° 0 mm 3 mps 751 mmHg 77%

    19 December, Tuesday

    Time Temperature Precipitation Wind Pressure Humidity
    00:00 +17°C° 0 mm 4 mps 750 mmHg 75%
    01:00 +17°C° 0 mm 4 mps 750 mmHg 74%
    02:00 +17°C° 0 mm 4 mps 750 mmHg 74%
    03:00 +17°C° 0 mm 4 mps 750 mmHg 74%
    04:00 +17°C° 0 mm 4 mps 750 mmHg 74%
    05:00 +17°C° 0 mm 4 mps 750 mmHg 73%
    06:00 +17°C° 0 mm 4 mps 750 mmHg 72%
    07:00 +17°C° 0 mm 4 mps 751 mmHg 71%
    08:00 +17°C° 0 mm 5 mps 751 mmHg 66%
    09:00 +20°C° 0 mm 5 mps 751 mmHg 61%
    10:00 +21°C° 0 mm 6 mps 751 mmHg 55%
    11:00 +21°C° 0 mm 6 mps 751 mmHg 54%
    12:00 +22°C° 0 mm 6 mps 750 mmHg 52%
    13:00 +22°C° 0 mm 6 mps 749 mmHg 51%
    14:00 +21°C° 0 mm 5 mps 749 mmHg 53%
    15:00 +21°C° 0 mm 5 mps 749 mmHg 56%
    16:00 +20°C° 0 mm 5 mps 748 mmHg 58%
    17:00 +19°C° 0 mm 4 mps 749 mmHg 63%
    18:00 +18°C° 0 mm 4 mps 749 mmHg 67%
    19:00 +17°C° 0 mm 3 mps 750 mmHg 71%
    20:00 +16°C° 0 mm 3 mps 750 mmHg 72%
    21:00 +16°C° 0 mm 3 mps 750 mmHg 72%
    22:00 +16°C° 0 mm 3 mps 751 mmHg 73%
    23:00 +16°C° 0 mm 3 mps 750 mmHg 74%
    Show more